Powrót do katalogu

STARLINK-30800

AktywnyŁącznośćVLEO
NORAD 58206·PAYLOAD·🇺🇸 United States

Wystrzelony Nov 3, 2023 z Cape Canaveral Space Force Station

Loading…

Następne Przeloty (najbliższe 24 godziny)

TLE

ŚwieżeSource: CelesTrak SupGP

Epoka: Sep 15, 2026, 01:50 UTC

1 58206C 23170A   26258.07687500 -.00001648  00000+0 -59702-4 0  2585
2 58206  43.0026 205.0521 0001345 258.3072 308.0063 15.27573520    11

Śledź STARLINK-30800 w czasie rzeczywistym z AllMySat

Download on the App Store